Location: Rancho Del Sol Observatory
(38.7214°N, 120.6350°W)
Time: 06:25:09
(UTC-08:00)

A-11 Canister half - Pass Details

Date: 29 January 2020
Orbit: 1517 x 1683 km, 47.2° (Epoch: 22 February)

Event Time Altitude Azimuth Distance (km) Brightness Sun altitude
Rises 03:15:18 0° 296° (WNW) 4,685 - -45.9°
Reaches altitude 10° 03:18:24 10° 299° (WNW) 3,690 - -45.4°
Maximum altitude 03:27:38 68° 22° (NNE) 1,618 - -43.6°
Exits shadow 03:29:34 56° 74° (ENE) 1,763 9.3 -43.2°
Drops below altitude 10° 03:36:53 10° 105° (ESE) 3,694 11.5 -41.8°
Sets 03:39:59 0° 108° (ESE) 4,690 12.2 -41.2°
